Time,TemperatureF,DewpointF,PressureIn,WindDirection,WindDirectionDegrees,WindSpeedMPH,WindSpeedGustMPH,Humidity,HourlyPrecipIn,Conditions,Clouds,dailyrainin,SoftwareType,DateUTC
2013-06-06 00:02:00,79.6,69.0,29.83,SSE,158,0.0,0.0,70,0.00,,CLR,0.00,VWS V14.01,2013-06-06 05:02:00,
2013-06-06 00:07:00,79.6,69.0,29.84,SSE,158,0.0,0.0,70,0.00,,CLR,0.00,VWS V14.01,2013-06-06 05:07:00,
2013-06-06 00:12:00,79.4,68.8,29.84,SSE,158,0.0,0.0,70,0.00,,CLR,0.00,VWS V14.01,2013-06-06 05:12:00,
2013-06-06 00:17:00,79.4,68.8,29.84,SSE,158,0.0,0.0,70,0.00,,CLR,0.00,VWS V14.01,2013-06-06 05:17:00,
2013-06-06 00:22:00,79.4,68.8,29.84,SSE,158,0.0,0.0,70,0.00,,CLR,0.00,VWS V14.01,2013-06-06 05:22:00,
2013-06-06 00:27:00,79.2,68.6,29.84,SSE,158,0.0,0.0,70,0.00,,CLR,0.00,VWS V14.01,2013-06-06 05:27:00,
2013-06-06 00:32:00,79.2,69.0,29.84,SSE,158,0.0,0.0,71,0.00,,CLR,0.00,VWS V14.01,2013-06-06 05:32:00,
2013-06-06 00:37:00,79.0,68.8,29.84,SSE,158,0.0,0.0,71,0.00,,CLR,0.00,VWS V14.01,2013-06-06 05:37:00,
2013-06-06 00:42:00,79.0,68.8,29.84,SSE,158,0.0,0.0,71,0.00,,CLR,0.00,VWS V14.01,2013-06-06 05:42:00,
2013-06-06 00:47:00,79.0,68.8,29.84,SSE,158,0.0,0.0,71,0.00,,CLR,0.00,VWS V14.01,2013-06-06 05:47:00,
2013-06-06 00:52:00,78.8,68.6,29.84,SSE,158,0.0,0.0,71,0.00,,CLR,0.00,VWS V14.01,2013-06-06 05:52:00,
2013-06-06 00:57:00,78.6,68.8,29.84,SSE,158,0.0,0.0,72,0.00,,CLR,0.00,VWS V14.01,2013-06-06 05:57:00,
2013-06-06 01:02:00,78.6,68.8,29.84,SSE,158,0.0,0.0,72,0.00,,CLR,0.00,VWS V14.01,2013-06-06 06:02:00,
2013-06-06 01:07:00,78.5,68.7,29.84,SSE,158,0.0,0.0,72,0.00,,CLR,0.00,VWS V14.01,2013-06-06 06:07:00,
2013-06-06 01:12:00,78.3,68.9,29.84,SSE,158,0.0,0.0,73,0.00,,CLR,0.00,VWS V14.01,2013-06-06 06:12:00,
2013-06-06 01:17:00,78.1,68.8,29.84,SSE,158,0.0,0.0,73,0.00,,CLR,0.00,VWS V14.01,2013-06-06 06:17:00,
2013-06-06 01:22:00,77.9,68.9,29.82,SSE,158,0.0,0.0,74,0.00,,CLR,0.00,VWS V14.01,2013-06-06 06:22:00,
2013-06-06 01:27:00,77.7,68.8,29.82,SSE,158,0.0,0.0,74,0.00,,CLR,0.00,VWS V14.01,2013-06-06 06:27:00,
2013-06-06 01:32:00,77.4,68.5,29.82,SSE,158,0.0,0.0,74,0.00,,CLR,0.00,VWS V14.01,2013-06-06 06:32:00,
2013-06-06 01:37:00,77.2,68.7,29.82,SSE,158,0.0,0.0,75,0.00,,CLR,0.00,VWS V14.01,2013-06-06 06:37:00,
2013-06-06 01:42:00,76.8,68.7,29.82,SSE,158,0.0,0.0,76,0.00,,CLR,0.00,VWS V14.01,2013-06-06 06:42:00,
2013-06-06 01:47:00,76.8,68.7,29.82,SSE,158,0.0,0.0,76,0.00,,CLR,0.00,VWS V14.01,2013-06-06 06:47:00,
2013-06-06 01:52:00,76.7,68.6,29.81,SSE,158,0.0,0.0,76,0.00,,CLR,0.00,VWS V14.01,2013-06-06 06:52:00,
2013-06-06 01:57:00,76.7,68.9,29.81,SSE,158,0.0,0.0,77,0.00,,CLR,0.00,VWS V14.01,2013-06-06 06:57:00,
2013-06-06 02:02:00,76.3,68.6,29.81,SSE,158,0.0,0.0,77,0.00,,CLR,0.00,VWS V14.01,2013-06-06 07:02:00,
2013-06-06 02:07:00,76.1,68.8,29.81,SSE,158,0.0,0.0,78,0.00,,CLR,0.00,VWS V14.01,2013-06-06 07:07:00,
2013-06-06 02:12:00,76.0,69.0,29.81,SSE,158,0.0,0.0,79,0.00,,CLR,0.00,VWS V14.01,2013-06-06 07:12:00,
2013-06-06 02:17:00,75.8,68.8,29.81,SSE,158,0.0,0.0,79,0.00,,CLR,0.00,VWS V14.01,2013-06-06 07:17:00,
2013-06-06 02:22:00,75.3,68.7,29.81,SE,135,0.0,1.0,80,0.00,,CLR,0.00,VWS V14.01,2013-06-06 07:22:00,
2013-06-06 02:27:00,74.9,68.7,29.81,SE,134,0.0,0.0,81,0.00,,CLR,0.00,VWS V14.01,2013-06-06 07:27:00,
2013-06-06 02:32:00,74.6,68.8,29.81,SE,134,0.0,0.0,82,0.00,,CLR,0.00,VWS V14.01,2013-06-06 07:32:00,
2013-06-06 02:37:00,74.4,68.9,29.81,SE,134,0.0,0.0,83,0.00,,CLR,0.00,VWS V14.01,2013-06-06 07:37:00,
2013-06-06 02:42:00,74.2,68.7,29.81,SE,134,0.0,0.0,83,0.00,,CLR,0.00,VWS V14.01,2013-06-06 07:42:00,
2013-06-06 02:47:00,74.0,68.9,29.81,SE,134,0.0,0.0,84,0.00,,CLR,0.00,VWS V14.01,2013-06-06 07:47:00,
2013-06-06 02:52:00,73.9,68.8,29.81,SE,133,0.0,2.0,84,0.00,,CLR,0.00,VWS V14.01,2013-06-06 07:52:00,
2013-06-06 02:57:00,73.7,68.6,29.81,SE,133,0.0,0.0,84,0.00,,CLR,0.00,VWS V14.01,2013-06-06 07:57:00,
2013-06-06 03:02:00,73.5,68.7,29.81,SE,133,0.0,0.0,85,0.00,,CLR,0.00,VWS V14.01,2013-06-06 08:02:00,
2013-06-06 03:07:00,73.5,68.7,29.81,SE,133,0.0,0.0,85,0.00,,CLR,0.00,VWS V14.01,2013-06-06 08:07:00,
2013-06-06 03:12:00,73.5,68.7,29.81,SE,133,0.0,0.0,85,0.00,,CLR,0.00,VWS V14.01,2013-06-06 08:12:00,
2013-06-06 03:17:00,73.3,68.9,29.81,SE,133,0.0,0.0,86,0.00,,CLR,0.00,VWS V14.01,2013-06-06 08:17:00,
2013-06-06 03:22:00,73.3,68.9,29.81,SE,133,0.0,0.0,86,0.00,,CLR,0.00,VWS V14.01,2013-06-06 08:22:00,
2013-06-06 03:27:00,73.2,68.8,29.81,SE,133,0.0,0.0,86,0.00,,CLR,0.00,VWS V14.01,2013-06-06 08:27:00,
2013-06-06 03:32:00,73.2,68.8,29.81,SE,133,0.0,0.0,86,0.00,,CLR,0.00,VWS V14.01,2013-06-06 08:32:00,
2013-06-06 03:37:00,73.2,68.8,29.81,SE,133,0.0,0.0,86,0.00,,CLR,0.00,VWS V14.01,2013-06-06 08:37:00,
2013-06-06 03:42:00,73.2,68.8,29.81,SE,133,0.0,0.0,86,0.00,,CLR,0.00,VWS V14.01,2013-06-06 08:42:00,
2013-06-06 03:47:00,73.0,68.6,29.81,SE,133,0.0,0.0,86,0.00,,CLR,0.00,VWS V14.01,2013-06-06 08:47:00,
2013-06-06 03:52:00,73.0,68.9,29.81,SE,133,0.0,0.0,87,0.00,,CLR,0.00,VWS V14.01,2013-06-06 08:52:00,
2013-06-06 03:57:00,73.0,68.9,29.81,SE,133,0.0,0.0,87,0.00,,CLR,0.00,VWS V14.01,2013-06-06 08:57:00,
2013-06-06 04:02:00,73.2,69.1,29.81,SE,133,0.0,0.0,87,0.00,,CLR,0.00,VWS V14.01,2013-06-06 09:02:00,
2013-06-06 04:07:00,73.2,69.1,29.82,SE,133,0.0,0.0,87,0.00,,CLR,0.00,VWS V14.01,2013-06-06 09:07:00,
2013-06-06 04:12:00,73.2,69.1,29.82,SE,133,0.0,0.0,87,0.00,,CLR,0.00,VWS V14.01,2013-06-06 09:12:00,
2013-06-06 04:17:00,73.2,68.8,29.82,SE,133,0.0,0.0,86,0.00,,CLR,0.00,VWS V14.01,2013-06-06 09:17:00,
2013-06-06 04:22:00,73.2,68.8,29.82,SE,133,0.0,0.0,86,0.00,,CLR,0.00,VWS V14.01,2013-06-06 09:22:00,
2013-06-06 04:27:00,72.8,68.7,29.82,SE,133,0.0,0.0,87,0.00,,CLR,0.00,VWS V14.01,2013-06-06 09:27:00,
2013-06-06 04:32:00,72.8,68.7,29.82,SE,133,0.0,0.0,87,0.00,,CLR,0.00,VWS V14.01,2013-06-06 09:32:00,
2013-06-06 04:37:00,72.8,68.7,29.82,SE,133,0.0,0.0,87,0.00,,CLR,0.00,VWS V14.01,2013-06-06 09:37:00,
2013-06-06 04:42:00,72.7,68.6,29.82,SE,133,0.0,0.0,87,0.00,,CLR,0.00,VWS V14.01,2013-06-06 09:42:00,
2013-06-06 04:47:00,72.5,68.4,29.82,SE,133,0.0,0.0,87,0.00,,CLR,0.00,VWS V14.01,2013-06-06 09:47:00,
2013-06-06 04:52:00,72.3,68.2,29.82,SE,133,0.0,0.0,87,0.00,,CLR,0.00,VWS V14.01,2013-06-06 09:52:00,
2013-06-06 04:57:00,72.3,68.2,29.82,SE,133,0.0,0.0,87,0.00,,CLR,0.00,VWS V14.01,2013-06-06 09:57:00,
2013-06-06 05:02:00,72.3,68.2,29.82,SE,133,0.0,0.0,87,0.00,,CLR,0.00,VWS V14.01,2013-06-06 10:02:00,
2013-06-06 05:07:00,72.3,68.2,29.82,SE,133,0.0,0.0,87,0.00,,CLR,0.00,VWS V14.01,2013-06-06 10:07:00,
2013-06-06 05:12:00,72.1,68.0,29.82,SE,133,0.0,0.0,87,0.00,,CLR,0.00,VWS V14.01,2013-06-06 10:12:00,
2013-06-06 05:17:00,72.0,68.3,29.82,SE,133,0.0,0.0,88,0.00,,CLR,0.00,VWS V14.01,2013-06-06 10:17:00,
2013-06-06 05:22:00,71.8,68.1,29.83,SE,133,0.0,0.0,88,0.00,,CLR,0.00,VWS V14.01,2013-06-06 10:22:00,
2013-06-06 05:27:00,71.8,68.1,29.83,SE,133,0.0,0.0,88,0.00,,CLR,0.00,VWS V14.01,2013-06-06 10:27:00,
2013-06-06 05:32:00,71.8,68.1,29.83,SE,133,0.0,0.0,88,0.00,,CLR,0.00,VWS V14.01,2013-06-06 10:32:00,
2013-06-06 05:37:00,71.6,67.9,29.84,SE,133,0.0,0.0,88,0.00,,CLR,0.00,VWS V14.01,2013-06-06 10:37:00,
2013-06-06 05:42:00,71.6,68.2,29.84,SE,133,0.0,0.0,89,0.00,,CLR,0.00,VWS V14.01,2013-06-06 10:42:00,
2013-06-06 05:47:00,71.6,68.2,29.84,SE,133,0.0,0.0,89,0.00,,CLR,0.00,VWS V14.01,2013-06-06 10:47:00,
2013-06-06 05:52:00,71.6,68.2,29.84,SE,133,0.0,0.0,89,0.00,,CLR,0.00,VWS V14.01,2013-06-06 10:52:00,
2013-06-06 05:57:00,71.6,68.2,29.84,SE,133,0.0,0.0,89,0.00,,CLR,0.00,VWS V14.01,2013-06-06 10:57:00,
2013-06-06 06:02:00,71.8,68.4,29.84,SE,133,0.0,0.0,89,0.00,,CLR,0.00,VWS V14.01,2013-06-06 11:02:00,
2013-06-06 06:07:00,71.8,68.4,29.85,SE,133,0.0,0.0,89,0.00,,CLR,0.00,VWS V14.01,2013-06-06 11:07:00,
2013-06-06 06:12:00,71.8,68.4,29.85,SE,133,0.0,0.0,89,0.00,,CLR,0.00,VWS V14.01,2013-06-06 11:12:00,
2013-06-06 06:17:00,71.8,68.4,29.85,SE,133,0.0,0.0,89,0.00,,CLR,0.00,VWS V14.01,2013-06-06 11:17:00,
2013-06-06 06:22:00,71.8,68.4,29.85,SE,133,0.0,0.0,89,0.00,,CLR,0.00,VWS V14.01,2013-06-06 11:22:00,
2013-06-06 06:27:00,71.8,68.4,29.85,SE,133,0.0,0.0,89,0.00,,CLR,0.00,VWS V14.01,2013-06-06 11:27:00,
2013-06-06 06:32:00,71.8,68.4,29.85,SE,133,0.0,0.0,89,0.00,,CLR,0.00,VWS V14.01,2013-06-06 11:32:00,
2013-06-06 06:37:00,71.8,68.4,29.85,SE,133,0.0,0.0,89,0.00,,CLR,0.00,VWS V14.01,2013-06-06 11:37:00,
2013-06-06 06:42:00,72.0,68.6,29.85,SE,133,0.0,0.0,89,0.00,,CLR,0.00,VWS V14.01,2013-06-06 11:42:00,
2013-06-06 06:47:00,71.8,68.4,29.85,SE,133,0.0,0.0,89,0.00,,CLR,0.00,VWS V14.01,2013-06-06 11:47:00,
2013-06-06 06:52:00,71.8,68.4,29.86,SE,133,0.0,0.0,89,0.00,,CLR,0.00,VWS V14.01,2013-06-06 11:52:00,
2013-06-06 06:57:00,71.6,68.2,29.86,SE,132,0.0,0.0,89,0.00,,,0.00,VWS V14.01,2013-06-06 11:57:00,
2013-06-06 07:02:00,71.6,68.2,29.86,SE,132,0.0,0.0,89,0.00,,,0.00,VWS V14.01,2013-06-06 12:02:00,
2013-06-06 07:07:00,71.6,68.5,29.87,SE,132,0.0,0.0,90,0.00,,,0.00,VWS V14.01,2013-06-06 12:07:00,
2013-06-06 07:12:00,71.8,68.4,29.87,SE,132,0.0,0.0,89,0.00,,,0.00,VWS V14.01,2013-06-06 12:12:00,
2013-06-06 07:17:00,71.8,68.4,29.87,SE,133,0.0,0.0,89,0.00,,,0.00,VWS V14.01,2013-06-06 12:17:00,
2013-06-06 07:22:00,72.0,68.6,29.88,SE,132,0.0,0.0,89,0.00,,,0.00,VWS V14.01,2013-06-06 12:22:00,
2013-06-06 07:27:00,72.0,68.6,29.88,SE,133,0.0,0.0,89,0.00,,,0.00,VWS V14.01,2013-06-06 12:27:00,
2013-06-06 07:32:00,72.1,68.7,29.88,SE,133,0.0,0.0,89,0.00,,,0.00,VWS V14.01,2013-06-06 12:32:00,
2013-06-06 07:37:00,72.3,68.9,29.88,SE,132,0.0,0.0,89,0.00,,,0.00,VWS V14.01,2013-06-06 12:37:00,
2013-06-06 07:42:00,72.5,69.1,29.88,SE,132,0.0,0.0,89,0.00,,,0.00,VWS V14.01,2013-06-06 12:42:00,
2013-06-06 07:47:00,72.8,69.4,29.88,SE,132,1.0,1.0,89,0.00,,,0.00,VWS V14.01,2013-06-06 12:47:00,
2013-06-06 07:52:00,73.3,69.9,29.87,SE,133,0.0,2.0,89,0.00,,,0.00,VWS V14.01,2013-06-06 12:52:00,
2013-06-06 07:57:00,73.7,69.9,29.87,SE,133,0.0,0.0,88,0.00,,CLR,0.00,VWS V14.01,2013-06-06 12:57:00,
2013-06-06 08:02:00,74.0,70.2,29.87,SE,132,0.0,0.0,88,0.00,,CLR,0.00,VWS V14.01,2013-06-06 13:02:00,
2013-06-06 08:07:00,74.4,70.3,29.87,SE,138,0.0,0.0,87,0.00,,CLR,0.00,VWS V14.01,2013-06-06 13:07:00,
2013-06-06 08:12:00,74.9,70.8,29.87,SE,138,0.0,0.0,87,0.00,,CLR,0.00,VWS V14.01,2013-06-06 13:12:00,
2013-06-06 08:17:00,75.3,70.8,29.87,South,182,0.0,0.0,86,0.00,,CLR,0.00,VWS V14.01,2013-06-06 13:17:00,
2013-06-06 08:22:00,75.6,70.8,29.87,SSE,167,2.0,4.0,85,0.00,,CLR,0.00,VWS V14.01,2013-06-06 13:22:00,
2013-06-06 08:27:00,76.1,70.9,29.87,SE,142,0.0,0.0,84,0.00,,CLR,0.00,VWS V14.01,2013-06-06 13:27:00,
2013-06-06 08:32:00,76.5,71.0,29.87,East,98,0.0,0.0,83,0.00,,CLR,0.00,VWS V14.01,2013-06-06 13:32:00,
2013-06-06 08:37:00,77.0,71.1,29.86,ESE,105,0.0,2.0,82,0.00,,CLR,0.00,VWS V14.01,2013-06-06 13:37:00,
2013-06-06 08:42:00,77.6,70.9,29.86,ESE,115,0.0,6.0,80,0.00,,CLR,0.00,VWS V14.01,2013-06-06 13:42:00,
2013-06-06 08:47:00,77.9,70.9,29.86,SSE,150,0.0,4.0,79,0.00,,CLR,0.00,VWS V14.01,2013-06-06 13:47:00,
2013-06-06 08:52:00,78.6,71.2,29.87,SSE,150,0.0,4.0,78,0.00,,CLR,0.00,VWS V14.01,2013-06-06 13:52:00,
2013-06-06 08:57:00,78.8,70.2,29.87,SSE,152,0.0,1.0,75,0.00,,CLR,0.00,VWS V14.01,2013-06-06 13:57:00,
2013-06-06 09:02:00,79.0,69.2,29.87,South,178,0.0,4.0,72,0.00,,BKN015,0.00,VWS V14.01,2013-06-06 14:02:00,
2013-06-06 09:07:00,79.4,68.8,29.89,South,175,0.0,0.0,70,0.00,,BKN015,0.00,VWS V14.01,2013-06-06 14:07:00,
2013-06-06 09:12:00,79.4,68.8,29.89,South,174,0.0,2.0,70,0.00,,BKN015,0.00,VWS V14.01,2013-06-06 14:12:00,
2013-06-06 09:17:00,79.8,68.7,29.89,South,174,0.0,0.0,69,0.00,,BKN015,0.00,VWS V14.01,2013-06-06 14:17:00,
2013-06-06 09:22:00,80.9,69.4,29.89,South,174,0.0,0.0,68,0.00,,BKN015,0.00,VWS V14.01,2013-06-06 14:22:00,
2013-06-06 09:27:00,81.4,69.4,29.89,South,174,0.0,0.0,67,0.00,,BKN015,0.00,VWS V14.01,2013-06-06 14:27:00,
2013-06-06 09:32:00,81.4,68.5,29.89,South,174,0.0,0.0,65,0.00,,BKN015,0.00,VWS V14.01,2013-06-06 14:32:00,
2013-06-06 09:37:00,81.4,69.0,29.89,South,175,0.0,0.0,66,0.00,,BKN015,0.00,VWS V14.01,2013-06-06 14:37:00,
2013-06-06 09:42:00,81.8,68.9,29.89,SSE,160,0.0,4.0,65,0.00,,BKN015,0.00,VWS V14.01,2013-06-06 14:42:00,
2013-06-06 09:47:00,81.8,68.4,29.89,SSE,161,0.0,0.0,64,0.00,,BKN015,0.00,VWS V14.01,2013-06-06 14:47:00,
2013-06-06 09:52:00,82.2,68.4,29.89,SSE,161,0.0,0.0,63,0.00,,BKN015,0.00,VWS V14.01,2013-06-06 14:52:00,
2013-06-06 09:57:00,82.4,68.6,29.89,SSE,161,0.0,0.0,63,0.00,,BKN015,0.00,VWS V14.01,2013-06-06 14:57:00,
2013-06-06 10:02:00,82.6,68.7,29.89,West,261,0.0,4.0,63,0.00,,BKN015,0.00,VWS V14.01,2013-06-06 15:02:00,
2013-06-06 10:07:00,83.2,68.4,29.91,West,261,0.0,0.0,61,0.00,,,0.00,VWS V14.01,2013-06-06 15:07:00,
2013-06-06 10:12:00,82.6,68.3,29.91,NW,316,6.0,7.0,62,0.00,,,0.00,VWS V14.01,2013-06-06 15:12:00,
2013-06-06 10:17:00,82.8,68.9,29.91,West,261,0.0,6.0,63,0.00,,,0.00,VWS V14.01,2013-06-06 15:17:00,
2013-06-06 10:22:00,83.2,69.8,29.92,West,277,0.0,6.0,64,0.00,,,0.00,VWS V14.01,2013-06-06 15:22:00,
2013-06-06 10:27:00,83.6,69.7,29.92,WNW,295,4.0,6.0,63,0.00,,,0.00,VWS V14.01,2013-06-06 15:27:00,
2013-06-06 10:32:00,82.8,69.4,29.92,WNW,284,2.0,7.0,64,0.00,,,0.00,VWS V14.01,2013-06-06 15:32:00,
2013-06-06 10:37:00,82.2,69.7,29.91,West,273,5.0,6.0,66,0.00,,,0.00,VWS V14.01,2013-06-06 15:37:00,
2013-06-06 10:42:00,82.0,69.5,29.91,WNW,296,10.0,13.0,66,0.00,,,0.00,VWS V14.01,2013-06-06 15:42:00,
2013-06-06 10:47:00,81.4,69.8,29.91,WNW,298,4.0,12.0,68,0.00,,,0.00,VWS V14.01,2013-06-06 15:47:00,
2013-06-06 10:52:00,81.1,70.0,29.91,WNW,289,2.0,12.0,69,0.00,,SCT045,0.00,VWS V14.01,2013-06-06 15:52:00,
2013-06-06 10:57:00,80.9,68.9,29.91,NW,322,4.0,7.0,67,0.00,,FEW021,0.00,VWS V14.01,2013-06-06 15:57:00,
2013-06-06 11:02:00,81.1,68.7,29.91,NNW,331,4.0,9.0,66,0.00,,FEW021,0.00,VWS V14.01,2013-06-06 16:02:00,
2013-06-06 11:07:00,81.1,69.1,29.90,NNW,333,5.0,8.0,67,0.00,,FEW021,0.00,VWS V14.01,2013-06-06 16:07:00,
2013-06-06 11:12:00,81.1,69.1,29.90,NNW,335,4.0,8.0,67,0.00,,FEW021,0.00,VWS V14.01,2013-06-06 16:12:00,
2013-06-06 11:17:00,81.2,69.2,29.90,NW,320,1.0,6.0,67,0.00,,FEW021,0.00,VWS V14.01,2013-06-06 16:17:00,
2013-06-06 11:22:00,81.4,69.4,29.90,NW,325,1.0,6.0,67,0.00,,FEW021,0.00,VWS V14.01,2013-06-06 16:22:00,
2013-06-06 11:27:00,82.4,69.9,29.90,NW,324,1.0,5.0,66,0.00,,FEW021,0.00,VWS V14.01,2013-06-06 16:27:00,
2013-06-06 11:32:00,82.4,68.6,29.90,NNE,12,0.0,10.0,63,0.00,,FEW021,0.00,VWS V14.01,2013-06-06 16:32:00,
2013-06-06 11:37:00,82.2,68.4,29.89,WNW,297,0.0,5.0,63,0.00,,FEW021,0.00,VWS V14.01,2013-06-06 16:37:00,
2013-06-06 11:42:00,82.4,67.6,29.89,WNW,297,0.0,5.0,61,0.00,,FEW021,0.00,VWS V14.01,2013-06-06 16:42:00,
2013-06-06 11:47:00,82.6,68.3,29.89,WNW,297,0.0,0.0,62,0.00,,FEW021,0.00,VWS V14.01,2013-06-06 16:47:00,
2013-06-06 11:52:00,83.2,68.8,29.89,WNW,296,0.0,4.0,62,0.00,,FEW021,0.00,VWS V14.01,2013-06-06 16:52:00,
2013-06-06 11:57:00,84.0,68.6,29.89,WNW,296,0.0,0.0,60,0.00,,FEW031,0.00,VWS V14.01,2013-06-06 16:57:00,
2013-06-06 12:02:00,84.3,67.9,29.89,NNE,12,0.0,5.0,58,0.00,,FEW031,0.00,VWS V14.01,2013-06-06 17:02:00,
2013-06-06 12:07:00,84.7,67.8,29.88,ESE,105,0.0,1.0,57,0.00,,FEW031,0.00,VWS V14.01,2013-06-06 17:07:00,
2013-06-06 12:12:00,84.9,67.5,29.88,NE,37,0.0,1.0,56,0.00,,FEW031,0.00,VWS V14.01,2013-06-06 17:12:00,
2013-06-06 12:17:00,86.1,68.1,29.88,SSE,160,0.0,3.0,55,0.00,,FEW031,0.00,VWS V14.01,2013-06-06 17:17:00,
2013-06-06 12:22:00,87.0,68.4,29.87,South,175,0.0,3.0,54,0.00,,FEW031,0.00,VWS V14.01,2013-06-06 17:22:00,
2013-06-06 12:27:00,87.4,67.1,29.87,SSE,165,0.0,1.0,51,0.00,,FEW031,0.00,VWS V14.01,2013-06-06 17:27:00,
2013-06-06 12:32:00,88.0,66.5,29.87,East,101,0.0,3.0,49,0.00,,FEW031,0.00,VWS V14.01,2013-06-06 17:32:00,
2013-06-06 12:37:00,88.4,66.8,29.87,East,100,0.0,0.0,49,0.00,,FEW031,0.00,VWS V14.01,2013-06-06 17:37:00,
2013-06-06 12:42:00,88.2,67.2,29.87,NW,317,1.0,5.0,50,0.00,,FEW031,0.00,VWS V14.01,2013-06-06 17:42:00,
2013-06-06 12:47:00,88.0,67.1,29.87,SE,145,0.0,5.0,50,0.00,,FEW031,0.00,VWS V14.01,2013-06-06 17:47:00,
2013-06-06 12:52:00,88.2,66.7,29.87,ESE,117,0.0,5.0,49,0.00,,FEW031,0.00,VWS V14.01,2013-06-06 17:52:00,
2013-06-06 12:57:00,88.0,66.5,29.87,ESE,109,0.0,5.0,49,0.00,,CLR,0.00,VWS V14.01,2013-06-06 17:57:00,
2013-06-06 13:02:00,88.2,66.7,29.87,SE,144,0.0,5.0,49,0.00,,CLR,0.00,VWS V14.01,2013-06-06 18:02:00,
2013-06-06 13:07:00,88.6,67.0,29.87,East,95,0.0,2.0,49,0.00,,CLR,0.00,VWS V14.01,2013-06-06 18:07:00,
2013-06-06 13:12:00,88.8,66.0,29.87,ESE,117,0.0,3.0,47,0.00,,CLR,0.00,VWS V14.01,2013-06-06 18:12:00,
2013-06-06 13:17:00,89.0,66.2,29.87,ENE,74,0.0,0.0,47,0.00,,CLR,0.00,VWS V14.01,2013-06-06 18:17:00,
2013-06-06 13:22:00,89.7,65.6,29.87,SSE,165,0.0,6.0,45,0.00,,CLR,0.00,VWS V14.01,2013-06-06 18:22:00,
2013-06-06 13:27:00,89.0,65.6,29.87,SSE,157,0.0,6.0,46,0.00,,CLR,0.00,VWS V14.01,2013-06-06 18:27:00,
2013-06-06 13:32:00,89.5,66.6,29.87,SSE,157,0.0,6.0,47,0.00,,CLR,0.00,VWS V14.01,2013-06-06 18:32:00,
2013-06-06 13:37:00,90.3,66.7,29.87,ESE,113,0.0,5.0,46,0.00,,CLR,0.00,VWS V14.01,2013-06-06 18:37:00,
2013-06-06 13:42:00,90.1,66.6,29.87,East,101,0.0,7.0,46,0.00,,CLR,0.00,VWS V14.01,2013-06-06 18:42:00,
2013-06-06 13:47:00,90.1,65.9,29.87,ESE,123,1.0,8.0,45,0.00,,CLR,0.00,VWS V14.01,2013-06-06 18:47:00,
2013-06-06 13:52:00,90.5,66.3,29.87,ESE,103,0.0,8.0,45,0.00,,CLR,0.00,VWS V14.01,2013-06-06 18:52:00,
2013-06-06 13:57:00,91.0,65.4,29.87,SE,143,5.0,6.0,43,0.00,,FEW045,0.00,VWS V14.01,2013-06-06 18:57:00,
2013-06-06 14:02:00,91.2,65.6,29.87,ESE,113,0.0,6.0,43,0.00,,FEW045,0.00,VWS V14.01,2013-06-06 19:02:00,
2013-06-06 14:07:00,91.0,66.1,29.87,East,94,0.0,4.0,44,0.00,,FEW045,0.00,VWS V14.01,2013-06-06 19:07:00,
2013-06-06 14:12:00,91.0,65.4,29.87,SSE,151,5.0,5.0,43,0.00,,FEW045,0.00,VWS V14.01,2013-06-06 19:12:00,
2013-06-06 14:17:00,91.0,64.7,29.87,South,169,7.0,7.0,42,0.00,,FEW045,0.00,VWS V14.01,2013-06-06 19:17:00,
2013-06-06 14:22:00,90.7,64.5,29.86,SE,125,0.0,9.0,42,0.00,,FEW045,0.00,VWS V14.01,2013-06-06 19:22:00,
2013-06-06 14:27:00,91.0,64.7,29.86,ESE,119,0.0,7.0,42,0.00,,FEW045,0.00,VWS V14.01,2013-06-06 19:27:00,
2013-06-06 14:32:00,91.4,63.7,29.86,South,188,3.0,7.0,40,0.00,,FEW045,0.00,VWS V14.01,2013-06-06 19:32:00,
2013-06-06 14:34:00,91.6,63.9,29.86,SSW,207,0.0,7.0,40,0.00,,FEW045,0.00,VWS V14.01,2013-06-06 19:34:00,
2013-06-06 14:39:00,92.5,64.7,29.86,South,171,0.0,3.0,40,0.00,,FEW045,0.00,VWS V14.01,2013-06-06 19:39:00,
2013-06-06 14:44:00,92.9,64.3,29.86,SSW,213,0.0,5.0,39,0.00,,FEW045,0.00,VWS V14.01,2013-06-06 19:44:00,
2013-06-06 14:49:00,93.2,64.6,29.85,SSW,195,5.0,5.0,39,0.00,,FEW045,0.00,VWS V14.01,2013-06-06 19:49:00,
2013-06-06 14:54:00,92.5,64.7,29.85,SSW,193,0.0,6.0,40,0.00,,FEW045,0.00,VWS V14.01,2013-06-06 19:54:00,
2013-06-06 14:59:00,92.1,62.9,29.85,SSE,155,5.0,7.0,38,0.00,,CLR,0.00,VWS V14.01,2013-06-06 19:59:00,
2013-06-06 15:04:00,92.1,62.9,29.84,SSE,167,0.0,7.0,38,0.00,,CLR,0.00,VWS V14.01,2013-06-06 20:04:00,
2013-06-06 15:09:00,92.7,63.4,29.84,SW,228,0.0,4.0,38,0.00,,CLR,0.00,VWS V14.01,2013-06-06 20:09:00,
2013-06-06 15:14:00,92.3,62.3,29.84,SSW,198,0.0,8.0,37,0.00,,CLR,0.00,VWS V14.01,2013-06-06 20:14:00,
2013-06-06 15:19:00,92.5,61.7,29.83,South,184,0.0,3.0,36,0.00,,CLR,0.00,VWS V14.01,2013-06-06 20:19:00,
2013-06-06 15:24:00,93.4,61.7,29.83,SSE,163,0.0,5.0,35,0.00,,CLR,0.00,VWS V14.01,2013-06-06 20:24:00,
2013-06-06 15:28:00,93.8,62.0,29.83,SE,141,0.0,4.0,35,0.00,,CLR,0.00,VWS V14.01,2013-06-06 20:28:00,
2013-06-06 15:33:00,94.0,63.0,29.83,South,180,2.0,4.0,36,0.00,,CLR,0.00,VWS V14.01,2013-06-06 20:33:00,
2013-06-06 15:38:00,93.6,63.4,29.83,East,91,0.0,1.0,37,0.00,,CLR,0.00,VWS V14.01,2013-06-06 20:38:00,
2013-06-06 15:43:00,94.3,63.3,29.83,SSW,199,0.0,4.0,36,0.00,,CLR,0.00,VWS V14.01,2013-06-06 20:43:00,
2013-06-06 15:48:00,94.9,61.3,29.82,WNW,283,0.0,6.0,33,0.00,,CLR,0.00,VWS V14.01,2013-06-06 20:48:00,
2013-06-06 15:53:00,95.4,61.8,29.82,SW,218,2.0,6.0,33,0.00,,CLR,0.00,VWS V14.01,2013-06-06 20:53:00,
2013-06-06 15:59:00,94.5,61.8,29.82,WNW,296,5.0,7.0,34,0.00,,CLR,0.00,VWS V14.01,2013-06-06 20:59:00,
2013-06-06 16:04:00,93.4,61.7,29.82,WNW,295,0.0,7.0,35,0.00,,CLR,0.00,VWS V14.01,2013-06-06 21:04:00,
2013-06-06 16:09:00,92.7,61.1,29.82,NW,323,4.0,9.0,35,0.00,,CLR,0.00,VWS V14.01,2013-06-06 21:09:00,
2013-06-06 16:13:00,92.7,61.9,29.82,West,279,0.0,9.0,36,0.00,,CLR,0.00,VWS V14.01,2013-06-06 21:13:00,
2013-06-06 16:18:00,93.6,60.2,29.81,SSW,212,0.0,2.0,33,0.00,,CLR,0.00,VWS V14.01,2013-06-06 21:18:00,
2013-06-06 16:23:00,94.5,61.0,29.81,SSW,212,0.0,2.0,33,0.00,,CLR,0.00,VWS V14.01,2013-06-06 21:23:00,
2013-06-06 16:28:00,95.4,60.0,29.81,SSW,206,0.0,0.0,31,0.00,,CLR,0.00,VWS V14.01,2013-06-06 21:28:00,
2013-06-06 16:33:00,96.1,60.6,29.80,SSW,207,0.0,3.0,31,0.00,,CLR,0.00,VWS V14.01,2013-06-06 21:33:00,
2013-06-06 16:38:00,95.6,61.1,29.80,South,178,0.0,4.0,32,0.00,,CLR,0.00,VWS V14.01,2013-06-06 21:38:00,
2013-06-06 16:43:00,96.1,62.4,29.80,West,267,0.0,7.0,33,0.00,,CLR,0.00,VWS V14.01,2013-06-06 21:43:00,
2013-06-06 16:48:00,95.6,63.6,29.80,West,277,0.0,6.0,35,0.00,,CLR,0.00,VWS V14.01,2013-06-06 21:48:00,
2013-06-06 16:53:00,95.6,61.9,29.80,West,277,0.0,6.0,33,0.00,,CLR,0.00,VWS V14.01,2013-06-06 21:53:00,
2013-06-06 16:58:00,95.1,62.3,29.80,WNW,284,0.0,1.0,34,0.00,,CLR,0.00,VWS V14.01,2013-06-06 21:58:00,
2013-06-06 17:03:00,95.1,64.0,29.79,WSW,243,3.0,5.0,36,0.00,,CLR,0.00,VWS V14.01,2013-06-06 22:03:00,
2013-06-06 17:08:00,95.1,64.0,29.79,SW,217,0.0,4.0,36,0.00,,CLR,0.00,VWS V14.01,2013-06-06 22:08:00,
2013-06-06 17:13:00,95.1,64.0,29.79,South,178,0.0,6.0,36,0.00,,CLR,0.00,VWS V14.01,2013-06-06 22:13:00,
2013-06-06 17:18:00,95.4,64.2,29.79,WSW,254,0.0,5.0,36,0.00,,CLR,0.00,VWS V14.01,2013-06-06 22:18:00,
2013-06-06 17:23:00,95.9,63.9,29.79,South,184,1.0,5.0,35,0.00,,CLR,0.00,VWS V14.01,2013-06-06 22:23:00,
2013-06-06 17:28:00,95.4,63.4,29.79,South,184,0.0,2.0,35,0.00,,CLR,0.00,VWS V14.01,2013-06-06 22:28:00,
2013-06-06 17:33:00,95.9,63.0,29.79,South,184,0.0,2.0,34,0.00,,CLR,0.00,VWS V14.01,2013-06-06 22:33:00,
2013-06-06 17:38:00,96.1,64.0,29.79,West,279,1.0,4.0,35,0.00,,CLR,0.00,VWS V14.01,2013-06-06 22:38:00,
2013-06-06 17:43:00,95.9,63.9,29.79,West,279,0.0,4.0,35,0.00,,CLR,0.00,VWS V14.01,2013-06-06 22:43:00,
2013-06-06 17:48:00,94.9,63.0,29.78,South,187,0.0,6.0,35,0.00,,CLR,0.00,VWS V14.01,2013-06-06 22:48:00,
2013-06-06 17:53:00,94.3,63.3,29.78,South,186,0.0,6.0,36,0.00,,CLR,0.00,VWS V14.01,2013-06-06 22:53:00,
2013-06-06 17:58:00,93.8,63.6,29.78,South,186,0.0,4.0,37,0.00,,CLR,0.00,VWS V14.01,2013-06-06 22:58:00,
2013-06-06 18:03:00,93.8,62.8,29.78,SE,146,4.0,6.0,36,0.00,,CLR,0.00,VWS V14.01,2013-06-06 23:03:00,
2013-06-06 18:08:00,93.6,63.4,29.78,SE,146,0.0,3.0,37,0.00,,CLR,0.00,VWS V14.01,2013-06-06 23:08:00,
2013-06-06 18:13:00,94.3,63.3,29.78,SE,146,0.0,3.0,36,0.00,,CLR,0.00,VWS V14.01,2013-06-06 23:13:00,
2013-06-06 18:18:00,94.3,63.3,29.77,SE,146,0.0,4.0,36,0.00,,CLR,0.00,VWS V14.01,2013-06-06 23:18:00,
2013-06-06 18:23:00,94.3,63.3,29.77,SE,146,0.0,4.0,36,0.00,,CLR,0.00,VWS V14.01,2013-06-06 23:23:00,
2013-06-06 18:28:00,94.3,63.3,29.77,SE,143,0.0,2.0,36,0.00,,CLR,0.00,VWS V14.01,2013-06-06 23:28:00,
2013-06-06 18:33:00,94.3,64.1,29.77,ESE,118,1.0,5.0,37,0.00,,CLR,0.00,VWS V14.01,2013-06-06 23:33:00,
2013-06-06 18:38:00,93.8,63.6,29.77,SSE,164,2.0,5.0,37,0.00,,CLR,0.00,VWS V14.01,2013-06-06 23:38:00,
2013-06-06 18:43:00,93.8,62.8,29.77,South,169,0.0,5.0,36,0.00,,CLR,0.00,VWS V14.01,2013-06-06 23:43:00,
2013-06-06 18:48:00,93.4,63.3,29.77,South,188,0.0,4.0,37,0.00,,CLR,0.00,VWS V14.01,2013-06-06 23:48:00,
2013-06-06 18:53:00,93.2,63.1,29.77,South,173,0.0,4.0,37,0.00,,CLR,0.00,VWS V14.01,2013-06-06 23:53:00,
2013-06-06 18:58:00,92.7,63.4,29.77,South,175,0.0,5.0,38,0.00,,CLR,0.00,VWS V14.01,2013-06-06 23:58:00,
2013-06-06 19:03:00,92.5,63.2,29.77,South,178,0.0,6.0,38,0.00,,CLR,0.00,VWS V14.01,2013-06-07 00:03:00,
2013-06-06 19:08:00,92.5,63.2,29.77,SSE,162,3.0,5.0,38,0.00,,CLR,0.00,VWS V14.01,2013-06-07 00:08:00,
2013-06-06 19:13:00,92.1,63.6,29.77,SSE,162,0.0,5.0,39,0.00,,CLR,0.00,VWS V14.01,2013-06-07 00:13:00,
2013-06-06 19:18:00,92.3,63.8,29.77,SSE,162,0.0,0.0,39,0.00,,CLR,0.00,VWS V14.01,2013-06-07 00:18:00,
2013-06-06 19:23:00,92.3,63.8,29.77,SSE,162,0.0,0.0,39,0.00,,CLR,0.00,VWS V14.01,2013-06-07 00:23:00,
2013-06-06 19:28:00,92.3,63.8,29.77,SSE,162,0.0,0.0,39,0.00,,CLR,0.00,VWS V14.01,2013-06-07 00:28:00,
2013-06-06 19:33:00,92.1,63.6,29.77,SSE,164,0.0,1.0,39,0.00,,CLR,0.00,VWS V14.01,2013-06-07 00:33:00,
2013-06-06 19:38:00,91.8,63.3,29.77,SSE,163,0.0,0.0,39,0.00,,CLR,0.00,VWS V14.01,2013-06-07 00:38:00,
2013-06-06 19:43:00,91.8,64.1,29.77,SSE,163,0.0,0.0,40,0.00,,CLR,0.00,VWS V14.01,2013-06-07 00:43:00,
2013-06-06 19:48:00,91.8,63.3,29.78,SSE,163,0.0,0.0,39,0.00,,CLR,0.00,VWS V14.01,2013-06-07 00:48:00,
2013-06-06 19:53:00,91.6,63.9,29.78,SSE,163,0.0,0.0,40,0.00,,CLR,0.00,VWS V14.01,2013-06-07 00:53:00,
2013-06-06 19:58:00,91.6,63.9,29.78,SSE,163,0.0,0.0,40,0.00,,CLR,0.00,VWS V14.01,2013-06-07 00:58:00,
2013-06-06 20:03:00,91.4,63.7,29.78,SSE,163,0.0,0.0,40,0.00,,CLR,0.00,VWS V14.01,2013-06-07 01:03:00,
2013-06-06 20:08:00,91.0,63.3,29.78,SSE,163,0.0,0.0,40,0.00,,CLR,0.00,VWS V14.01,2013-06-07 01:08:00,
2013-06-06 20:13:00,90.7,63.8,29.78,SSE,163,0.0,0.0,41,0.00,,CLR,0.00,VWS V14.01,2013-06-07 01:13:00,
2013-06-06 20:18:00,90.5,63.6,29.78,SSE,163,0.0,0.0,41,0.00,,CLR,0.00,VWS V14.01,2013-06-07 01:18:00,
2013-06-06 20:23:00,90.5,64.3,29.78,SSE,162,0.0,0.0,42,0.00,,CLR,0.00,VWS V14.01,2013-06-07 01:23:00,
2013-06-06 20:28:00,90.3,64.8,29.78,SSE,162,0.0,0.0,43,0.00,,CLR,0.00,VWS V14.01,2013-06-07 01:28:00,
2013-06-06 20:33:00,90.1,64.6,29.79,SSE,162,0.0,0.0,43,0.00,,CLR,0.00,VWS V14.01,2013-06-07 01:33:00,
2013-06-06 20:38:00,89.9,63.8,29.79,SSE,162,0.0,0.0,42,0.00,,CLR,0.00,VWS V14.01,2013-06-07 01:38:00,
2013-06-06 20:43:00,89.7,64.9,29.79,SSE,162,0.0,0.0,44,0.00,,CLR,0.00,VWS V14.01,2013-06-07 01:43:00,
2013-06-06 20:48:00,89.7,65.6,29.79,SSE,162,0.0,0.0,45,0.00,,CLR,0.00,VWS V14.01,2013-06-07 01:48:00,
2013-06-06 20:53:00,89.3,65.8,29.79,SSE,162,0.0,0.0,46,0.00,,CLR,0.00,VWS V14.01,2013-06-07 01:53:00,
2013-06-06 20:58:00,88.8,64.7,29.79,SSE,162,0.0,0.0,45,0.00,,SCT075,0.00,VWS V14.01,2013-06-07 01:58:00,
2013-06-06 21:03:00,88.6,65.8,29.81,North,9,4.0,8.0,47,0.00,,SCT075,0.00,VWS V14.01,2013-06-07 02:03:00,
2013-06-06 21:08:00,88.0,65.9,29.81,NE,36,8.0,11.0,48,0.00,,SCT075,0.00,VWS V14.01,2013-06-07 02:08:00,
2013-06-06 21:13:00,87.6,65.5,29.81,NNW,348,8.0,16.0,48,0.00,,SCT075,0.00,VWS V14.01,2013-06-07 02:13:00,
2013-06-06 21:18:00,87.2,65.7,29.82,NNW,345,11.0,17.0,49,0.00,,SCT075,0.00,VWS V14.01,2013-06-07 02:18:00,
2013-06-06 21:23:00,86.7,65.9,29.82,NW,323,2.0,17.0,50,0.00,,SCT075,0.00,VWS V14.01,2013-06-07 02:23:00,
2013-06-06 21:28:00,86.5,66.2,29.82,NNE,25,10.0,17.0,51,0.00,,SCT075,0.00,VWS V14.01,2013-06-07 02:28:00,
2013-06-06 21:33:00,85.9,66.2,29.84,NNW,341,7.0,17.0,52,0.00,,SCT075,0.00,VWS V14.01,2013-06-07 02:33:00,
2013-06-06 21:38:00,85.5,65.9,29.84,North,5,5.0,11.0,52,0.00,,SCT075,0.00,VWS V14.01,2013-06-07 02:38:00,
2013-06-06 21:43:00,85.1,66.1,29.84,NNE,18,13.0,14.0,53,0.00,,SCT075,0.00,VWS V14.01,2013-06-07 02:43:00,
2013-06-06 21:48:00,84.5,66.1,29.84,NW,307,7.0,20.0,54,0.00,,SCT075,0.00,VWS V14.01,2013-06-07 02:48:00,
2013-06-06 21:53:00,84.1,66.2,29.84,NNE,19,13.0,20.0,55,0.00,,SCT075,0.00,VWS V14.01,2013-06-07 02:53:00,
2013-06-06 21:58:00,83.8,66.4,29.84,North,355,3.0,14.0,56,0.00,,OVC070,0.00,VWS V14.01,2013-06-07 02:58:00,
2013-06-06 22:03:00,83.4,66.6,29.86,NNW,348,5.0,14.0,57,0.00,,OVC070,0.00,VWS V14.01,2013-06-07 03:03:00,
2013-06-06 22:08:00,82.8,66.0,29.86,NNE,30,7.0,11.0,57,0.00,,OVC070,0.00,VWS V14.01,2013-06-07 03:08:00,
2013-06-06 22:13:00,82.6,66.3,29.86,NNE,24,4.0,13.0,58,0.00,,OVC070,0.00,VWS V14.01,2013-06-07 03:13:00,
2013-06-06 22:18:00,82.2,66.5,29.88,North,11,9.0,14.0,59,0.00,,OVC070,0.00,VWS V14.01,2013-06-07 03:18:00,
2013-06-06 22:23:00,81.8,65.6,29.88,NNE,33,10.0,15.0,58,0.00,,OVC070,0.00,VWS V14.01,2013-06-07 03:23:00,
2013-06-06 22:28:00,81.4,65.2,29.88,NNE,17,4.0,15.0,58,0.00,,OVC070,0.00,VWS V14.01,2013-06-07 03:28:00,
2013-06-06 22:33:00,81.4,65.2,29.89,North,355,6.0,15.0,58,0.00,,OVC070,0.00,VWS V14.01,2013-06-07 03:33:00,
2013-06-06 22:38:00,81.2,65.5,29.89,NW,324,7.0,15.0,59,0.00,,OVC070,0.00,VWS V14.01,2013-06-07 03:38:00,
2013-06-06 22:43:00,81.1,65.4,29.89,NNW,348,4.0,15.0,59,0.00,,OVC070,0.00,VWS V14.01,2013-06-07 03:43:00,
2013-06-06 22:48:00,80.9,65.7,29.90,North,11,3.0,10.0,60,0.00,,OVC070,0.00,VWS V14.01,2013-06-07 03:48:00,
2013-06-06 22:53:00,80.9,65.7,29.90,NNW,344,3.0,10.0,60,0.00,,OVC070,0.00,VWS V14.01,2013-06-07 03:53:00,
2013-06-06 22:58:00,80.7,67.8,29.90,North,355,3.0,6.0,65,0.00,,BKN070,0.00,VWS V14.01,2013-06-07 03:58:00,
2013-06-06 23:01:00,80.5,65.8,29.90,NNE,18,2.0,6.0,61,0.00,,BKN070,0.00,VWS V14.01,2013-06-07 04:01:00,
2013-06-06 23:06:00,80.1,65.0,29.91,NNE,12,7.0,10.0,60,0.00,,BKN070,0.00,VWS V14.01,2013-06-07 04:06:00,
2013-06-06 23:11:00,79.9,64.8,29.91,NNW,348,1.0,12.0,60,0.00,,BKN070,0.00,VWS V14.01,2013-06-07 04:11:00,
2013-06-06 23:16:00,79.8,64.2,29.91,NE,38,3.0,13.0,59,0.00,,BKN070,0.00,VWS V14.01,2013-06-07 04:16:00,
2013-06-06 23:21:00,79.6,63.5,29.92,NE,47,4.0,15.0,58,0.00,,BKN070,0.00,VWS V14.01,2013-06-07 04:21:00,
2013-06-06 23:26:00,79.6,63.5,29.92,NNE,19,3.0,13.0,58,0.00,,BKN070,0.00,VWS V14.01,2013-06-07 04:26:00,
2013-06-06 23:31:00,79.4,62.9,29.92,NE,40,5.0,13.0,57,0.00,,BKN070,0.00,VWS V14.01,2013-06-07 04:31:00,
2013-06-06 23:36:00,79.2,62.7,29.92,NNE,20,9.0,16.0,57,0.00,,BKN070,0.00,VWS V14.01,2013-06-07 04:36:00,
2013-06-06 23:41:00,79.2,62.7,29.92,NNW,327,5.0,16.0,57,0.00,,BKN070,0.00,VWS V14.01,2013-06-07 04:41:00,
2013-06-06 23:46:00,79.0,62.5,29.92,East,99,4.0,7.0,57,0.00,,BKN070,0.00,VWS V14.01,2013-06-07 04:46:00,
2013-06-06 23:51:00,78.8,62.3,29.93,NNW,331,5.0,10.0,57,0.00,,BKN070,0.00,VWS V14.01,2013-06-07 04:51:00,
2013-06-06 23:57:00,78.8,62.8,29.93,North,355,4.0,9.0,58,0.00,,OVC070,0.00,VWS V14.01,2013-06-07 04:57:00,